Time,TemperatureF,DewpointF,PressureIn,WindDirection,WindDirectionDegrees,WindSpeedMPH,WindSpeedGustMPH,Humidity,HourlyPrecipIn,Conditions,Clouds,dailyrainin,SoftwareType,DateUTC
2013-01-16 00:10:00,39.7,37.9,30.10,SSE,157,0.0,0.0,93,0.04,,,0.00,WUHU21523XXSP,2013-01-16 05:10:00,
2013-01-16 00:15:00,39.7,37.9,30.11,SSE,157,0.0,0.0,93,0.04,,,0.00,WUHU21523XXSP,2013-01-16 05:15:00,
2013-01-16 00:20:00,39.7,37.9,30.10,SSE,157,0.0,0.0,93,0.04,,,0.00,WUHU21523XXSP,2013-01-16 05:20:00,
2013-01-16 00:25:00,39.7,37.9,30.10,SSE,157,0.0,0.0,93,0.04,,,0.00,WUHU21523XXSP,2013-01-16 05:25:00,
2013-01-16 00:30:00,39.7,37.9,30.11,SSE,157,0.0,0.0,93,0.06,,,0.04,WUHU21523XXSP,2013-01-16 05:30:00,
2013-01-16 00:35:00,39.7,37.9,30.11,SSE,157,0.0,0.0,93,0.04,,,0.04,WUHU21523XXSP,2013-01-16 05:35:00,
2013-01-16 00:40:00,39.7,37.9,30.10,SSE,157,0.0,0.0,93,0.04,,,0.04,WUHU21523XXSP,2013-01-16 05:40:00,
2013-01-16 00:45:00,39.7,37.9,30.10,SSE,157,0.0,0.0,93,0.04,,,0.04,WUHU21523XXSP,2013-01-16 05:45:00,
2013-01-16 00:50:00,39.7,37.9,30.10,SSE,157,0.0,0.0,93,0.04,,,0.04,WUHU21523XXSP,2013-01-16 05:50:00,
2013-01-16 01:01:00,39.7,37.9,30.10,SSE,157,0.0,0.0,93,0.04,,,0.04,WUHU21523XXSP,2013-01-16 06:01:00,
2013-01-16 01:06:00,39.7,37.9,30.09,SSE,157,0.0,0.0,93,0.04,,,0.04,WUHU21523XXSP,2013-01-16 06:06:00,
2013-01-16 01:11:00,39.7,37.9,30.09,SSE,157,0.0,0.0,93,0.06,,,0.06,WUHU21523XXSP,2013-01-16 06:11:00,
2013-01-16 01:16:00,39.7,37.9,30.09,SSE,157,0.0,0.0,93,0.06,,,0.06,WUHU21523XXSP,2013-01-16 06:16:00,
2013-01-16 01:21:00,39.7,37.9,30.09,SSE,157,0.0,0.0,93,0.06,,,0.06,WUHU21523XXSP,2013-01-16 06:21:00,
2013-01-16 01:26:00,39.7,37.9,30.09,SSE,157,0.0,0.0,93,0.02,,,0.06,WUHU21523XXSP,2013-01-16 06:26:00,
2013-01-16 01:31:00,39.7,37.9,30.09,SSE,157,0.0,0.0,93,0.02,,,0.06,WUHU21523XXSP,2013-01-16 06:31:00,
2013-01-16 01:36:00,39.7,37.9,30.09,SSE,157,0.0,0.0,93,0.02,,,0.06,WUHU21523XXSP,2013-01-16 06:36:00,
2013-01-16 01:41:00,39.7,37.9,30.10,SSE,157,0.0,0.0,93,0.02,,,0.06,WUHU21523XXSP,2013-01-16 06:41:00,
2013-01-16 01:51:00,39.7,37.9,30.09,South,180,1.1,1.1,93,0.04,,,0.06,WUHU21523XXSP,2013-01-16 06:51:00,
2013-01-16 01:56:00,39.7,37.9,30.10,South,180,1.1,1.1,93,0.04,,,0.08,WUHU21523XXSP,2013-01-16 06:56:00,
2013-01-16 02:14:00,39.7,37.9,30.10,SW,225,0.0,0.0,93,0.04,,,0.08,WUHU21523XXSP,2013-01-16 07:14:00,
2013-01-16 02:19:00,39.6,37.7,30.09,South,180,0.7,0.7,93,0.04,,,0.08,WUHU21523XXSP,2013-01-16 07:19:00,
2013-01-16 02:24:00,39.6,37.7,30.09,South,180,0.0,0.7,93,0.02,,,0.08,WUHU21523XXSP,2013-01-16 07:24:00,
2013-01-16 02:29:00,39.6,37.7,30.09,South,180,0.0,0.0,93,0.10,,,0.16,WUHU21523XXSP,2013-01-16 07:29:00,
2013-01-16 02:34:00,39.7,37.9,30.09,South,180,0.0,0.0,93,0.10,,,0.16,WUHU21523XXSP,2013-01-16 07:34:00,
2013-01-16 02:39:00,39.7,37.9,30.09,South,180,0.0,0.0,93,0.10,,,0.16,WUHU21523XXSP,2013-01-16 07:39:00,
2013-01-16 02:44:00,39.7,37.9,30.09,South,180,0.0,0.0,93,0.10,,,0.16,WUHU21523XXSP,2013-01-16 07:44:00,
2013-01-16 02:49:00,39.7,37.9,30.08,South,180,0.0,0.0,93,0.10,,,0.16,WUHU21523XXSP,2013-01-16 07:49:00,
2013-01-16 02:54:00,39.6,37.7,30.07,South,180,0.0,0.0,93,0.10,,,0.16,WUHU21523XXSP,2013-01-16 07:54:00,
2013-01-16 02:59:00,39.6,37.7,30.07,South,180,0.0,0.0,93,0.10,,,0.16,WUHU21523XXSP,2013-01-16 07:59:00,
2013-01-16 03:04:00,39.6,37.7,30.07,South,180,0.0,0.0,93,0.08,,,0.16,WUHU21523XXSP,2013-01-16 08:04:00,
2013-01-16 03:09:00,39.7,37.9,30.07,South,180,0.0,0.0,93,0.08,,,0.16,WUHU21523XXSP,2013-01-16 08:09:00,
2013-01-16 03:14:00,39.7,37.9,30.07,South,180,0.0,0.0,93,0.08,,,0.16,WUHU21523XXSP,2013-01-16 08:14:00,
2013-01-16 03:19:00,39.7,37.9,30.07,South,180,0.0,0.0,93,0.08,,,0.16,WUHU21523XXSP,2013-01-16 08:19:00,
2013-01-16 03:24:00,39.7,37.9,30.06,South,180,0.0,0.0,93,0.00,,,0.16,WUHU21523XXSP,2013-01-16 08:24:00,
2013-01-16 03:29:00,39.7,37.9,30.05,South,180,0.0,0.0,93,0.00,,,0.16,WUHU21523XXSP,2013-01-16 08:29:00,
2013-01-16 03:34:00,39.6,37.7,30.05,South,180,0.0,0.0,93,0.00,,,0.16,WUHU21523XXSP,2013-01-16 08:34:00,
2013-01-16 03:39:00,39.6,37.7,30.06,South,180,0.0,0.0,93,0.00,,,0.16,WUHU21523XXSP,2013-01-16 08:39:00,
2013-01-16 03:44:00,39.6,37.9,30.05,South,180,0.0,0.0,93,0.00,,,0.16,WUHU21523XXSP,2013-01-16 08:44:00,
2013-01-16 03:49:00,39.7,37.9,30.04,South,180,0.0,0.0,93,0.00,,,0.16,WUHU21523XXSP,2013-01-16 08:49:00,
2013-01-16 03:54:00,39.7,37.9,30.04,South,180,0.0,0.0,93,0.00,,,0.16,WUHU21523XXSP,2013-01-16 08:54:00,
2013-01-16 03:59:00,39.7,37.9,30.04,South,180,0.0,0.0,93,0.00,,,0.16,WUHU21523XXSP,2013-01-16 08:59:00,
2013-01-16 04:04:00,39.7,37.9,30.03,South,180,0.0,0.0,93,0.00,,,0.16,WUHU21523XXSP,2013-01-16 09:04:00,
2013-01-16 04:09:00,39.7,37.9,30.04,South,180,0.0,0.0,93,0.00,,,0.16,WUHU21523XXSP,2013-01-16 09:09:00,
2013-01-16 04:14:00,39.7,37.9,30.04,South,180,0.0,0.0,93,0.00,,,0.16,WUHU21523XXSP,2013-01-16 09:14:00,
2013-01-16 04:19:00,39.7,37.9,30.04,South,180,0.0,0.0,93,0.00,,,0.16,WUHU21523XXSP,2013-01-16 09:19:00,
2013-01-16 04:24:00,39.7,37.9,30.04,South,180,0.0,0.0,93,0.00,,,0.16,WUHU21523XXSP,2013-01-16 09:24:00,
2013-01-16 04:29:00,39.7,37.9,30.04,South,180,0.0,0.0,93,0.00,,,0.16,WUHU21523XXSP,2013-01-16 09:29:00,
2013-01-16 04:34:00,39.7,37.9,30.04,South,180,0.0,0.0,93,0.00,,,0.16,WUHU21523XXSP,2013-01-16 09:34:00,
2013-01-16 04:44:00,39.7,37.9,30.03,South,180,0.0,0.0,93,0.00,,,0.16,WUHU21523XXSP,2013-01-16 09:44:00,
2013-01-16 04:49:00,39.7,37.9,30.03,South,180,0.0,0.0,93,0.00,,,0.16,WUHU21523XXSP,2013-01-16 09:49:00,
2013-01-16 04:59:00,39.7,37.9,30.03,South,180,0.0,0.0,93,0.00,,,0.16,WUHU21523XXSP,2013-01-16 09:59:00,
2013-01-16 05:04:00,39.7,37.9,30.03,South,180,0.0,0.0,93,0.00,,,0.16,WUHU21523XXSP,2013-01-16 10:04:00,
2013-01-16 05:14:00,39.7,37.9,30.02,South,180,0.0,0.0,93,0.00,,,0.16,WUHU21523XXSP,2013-01-16 10:14:00,
2013-01-16 05:19:00,39.6,37.7,30.03,South,180,0.0,0.0,93,0.00,,,0.16,WUHU21523XXSP,2013-01-16 10:19:00,
2013-01-16 05:29:00,39.6,37.7,30.02,South,180,0.0,0.0,93,0.00,,,0.16,WUHU21523XXSP,2013-01-16 10:29:00,
2013-01-16 05:34:00,39.6,37.7,30.02,South,180,0.0,0.0,93,0.00,,,0.16,WUHU21523XXSP,2013-01-16 10:34:00,
2013-01-16 05:39:00,39.7,37.9,30.02,South,180,0.0,0.0,93,0.00,,,0.16,WUHU21523XXSP,2013-01-16 10:39:00,
2013-01-16 05:44:00,39.6,37.7,30.02,South,180,0.0,0.0,93,0.00,,,0.16,WUHU21523XXSP,2013-01-16 10:44:00,
2013-01-16 05:49:00,39.7,37.9,30.02,South,180,0.0,0.0,93,0.00,,,0.16,WUHU21523XXSP,2013-01-16 10:49:00,
2013-01-16 05:54:00,39.7,37.9,30.02,South,180,0.0,0.0,93,0.00,,,0.16,WUHU21523XXSP,2013-01-16 10:54:00,
2013-01-16 05:59:00,39.7,37.9,30.01,South,180,0.0,0.0,93,0.00,,,0.16,WUHU21523XXSP,2013-01-16 10:59:00,
2013-01-16 06:04:00,39.7,37.9,30.02,South,180,0.0,0.0,93,0.00,,,0.16,WUHU21523XXSP,2013-01-16 11:04:00,
2013-01-16 06:09:00,39.7,37.9,30.01,South,180,0.0,0.0,93,0.00,,,0.16,WUHU21523XXSP,2013-01-16 11:09:00,
2013-01-16 06:14:00,39.7,37.9,30.01,South,180,0.0,0.0,93,0.00,,,0.16,WUHU21523XXSP,2013-01-16 11:14:00,
2013-01-16 06:19:00,39.6,37.7,30.02,South,180,0.0,0.0,93,0.02,,,0.16,WUHU21523XXSP,2013-01-16 11:19:00,
2013-01-16 06:24:00,39.6,37.7,30.01,South,180,0.0,0.0,93,0.02,,,0.18,WUHU21523XXSP,2013-01-16 11:24:00,
2013-01-16 06:29:00,39.6,37.7,30.02,South,180,0.0,0.0,93,0.04,,,0.20,WUHU21523XXSP,2013-01-16 11:29:00,
2013-01-16 06:34:00,39.7,37.9,30.02,South,180,0.0,0.0,93,0.04,,,0.20,WUHU21523XXSP,2013-01-16 11:34:00,
2013-01-16 06:39:00,39.6,37.7,30.02,South,180,0.0,0.0,93,0.04,,,0.20,WUHU21523XXSP,2013-01-16 11:39:00,
2013-01-16 06:44:00,39.6,37.7,30.02,South,180,0.0,0.0,93,0.04,,,0.20,WUHU21523XXSP,2013-01-16 11:44:00,
2013-01-16 06:49:00,39.6,37.7,30.02,South,180,0.0,0.0,93,0.06,,,0.23,WUHU21523XXSP,2013-01-16 11:49:00,
2013-01-16 06:54:00,39.6,37.7,30.02,South,180,0.0,0.0,93,0.06,,,0.23,WUHU21523XXSP,2013-01-16 11:54:00,
2013-01-16 07:04:00,39.6,37.7,30.02,South,180,0.0,0.0,93,0.06,,,0.23,WUHU21523XXSP,2013-01-16 12:04:00,
2013-01-16 07:09:00,39.6,37.7,30.02,South,180,0.0,0.0,93,0.08,,,0.23,WUHU21523XXSP,2013-01-16 12:09:00,
2013-01-16 07:14:00,39.6,37.5,30.02,South,180,0.0,0.0,93,0.08,,,0.25,WUHU21523XXSP,2013-01-16 12:14:00,
2013-01-16 07:19:00,39.6,37.7,30.02,South,180,0.0,0.0,93,0.08,,,0.25,WUHU21523XXSP,2013-01-16 12:19:00,
2013-01-16 07:24:00,39.6,37.7,30.02,South,180,0.0,0.0,93,0.06,,,0.27,WUHU21523XXSP,2013-01-16 12:24:00,
2013-01-16 07:29:00,39.6,37.7,30.02,South,180,0.0,0.0,93,0.06,,,0.27,WUHU21523XXSP,2013-01-16 12:29:00,
2013-01-16 07:34:00,39.6,37.7,30.03,South,180,0.0,0.0,93,0.06,,,0.27,WUHU21523XXSP,2013-01-16 12:34:00,
2013-01-16 07:39:00,39.6,37.7,30.03,South,180,0.0,0.0,93,0.06,,,0.27,WUHU21523XXSP,2013-01-16 12:39:00,
2013-01-16 07:44:00,39.6,37.7,30.04,South,180,0.0,0.0,93,0.04,,,0.27,WUHU21523XXSP,2013-01-16 12:44:00,
2013-01-16 07:49:00,39.6,37.7,30.04,South,180,0.0,0.0,93,0.04,,,0.27,WUHU21523XXSP,2013-01-16 12:49:00,
2013-01-16 07:54:00,39.6,37.7,30.03,South,180,0.0,0.0,93,0.06,,,0.29,WUHU21523XXSP,2013-01-16 12:54:00,
2013-01-16 07:59:00,39.6,37.7,30.03,South,180,0.0,0.0,93,0.06,,,0.29,WUHU21523XXSP,2013-01-16 12:59:00,
2013-01-16 08:04:00,39.6,37.7,30.03,South,180,0.0,0.0,93,0.06,,,0.29,WUHU21523XXSP,2013-01-16 13:04:00,
2013-01-16 08:09:00,39.6,37.7,30.04,South,180,0.0,0.0,93,0.04,,,0.29,WUHU21523XXSP,2013-01-16 13:09:00,
2013-01-16 08:14:00,39.6,37.7,30.05,South,180,0.0,0.0,93,0.04,,,0.29,WUHU21523XXSP,2013-01-16 13:14:00,
2013-01-16 08:19:00,39.6,37.7,30.05,South,180,0.0,0.0,93,0.02,,,0.29,WUHU21523XXSP,2013-01-16 13:19:00,
2013-01-16 08:24:00,39.6,37.7,30.06,South,180,0.0,0.0,93,0.02,,,0.29,WUHU21523XXSP,2013-01-16 13:24:00,
2013-01-16 08:29:00,39.6,37.7,30.05,South,180,0.0,0.0,93,0.04,,,0.31,WUHU21523XXSP,2013-01-16 13:29:00,
2013-01-16 08:34:00,39.6,37.7,30.04,South,180,0.0,0.0,93,0.04,,,0.31,WUHU21523XXSP,2013-01-16 13:34:00,
2013-01-16 08:39:00,39.6,37.7,30.06,South,180,0.0,0.0,93,0.04,,,0.31,WUHU21523XXSP,2013-01-16 13:39:00,
2013-01-16 08:44:00,39.6,37.7,30.07,South,180,0.0,0.0,93,0.06,,,0.31,WUHU21523XXSP,2013-01-16 13:44:00,
2013-01-16 08:49:00,39.6,37.7,30.06,South,180,0.0,0.0,93,0.06,,,0.33,WUHU21523XXSP,2013-01-16 13:49:00,
2013-01-16 08:54:00,39.6,37.7,30.06,South,180,0.0,0.0,93,0.06,,,0.35,WUHU21523XXSP,2013-01-16 13:54:00,
2013-01-16 08:59:00,39.6,37.9,30.07,South,180,0.0,0.0,94,0.06,,,0.35,WUHU21523XXSP,2013-01-16 13:59:00,
2013-01-16 09:04:00,39.7,38.1,30.07,South,180,0.0,0.0,94,0.08,,,0.37,WUHU21523XXSP,2013-01-16 14:04:00,
2013-01-16 09:09:00,39.7,38.1,30.07,South,180,0.0,0.0,94,0.08,,,0.37,WUHU21523XXSP,2013-01-16 14:09:00,
2013-01-16 09:14:00,39.7,38.1,30.07,South,180,0.0,0.0,94,0.08,,,0.37,WUHU21523XXSP,2013-01-16 14:14:00,
2013-01-16 09:19:00,39.7,38.1,30.08,South,180,0.0,0.0,94,0.08,,,0.37,WUHU21523XXSP,2013-01-16 14:19:00,
2013-01-16 09:24:00,39.9,38.3,30.07,South,180,0.0,0.0,94,0.06,,,0.37,WUHU21523XXSP,2013-01-16 14:24:00,
2013-01-16 09:29:00,39.9,38.0,30.07,South,180,0.0,0.0,93,0.06,,,0.37,WUHU21523XXSP,2013-01-16 14:29:00,
2013-01-16 09:34:00,39.9,38.3,30.07,South,180,0.0,0.0,94,0.06,,,0.37,WUHU21523XXSP,2013-01-16 14:34:00,
2013-01-16 09:39:00,39.9,38.3,30.06,South,180,0.0,0.0,94,0.06,,,0.37,WUHU21523XXSP,2013-01-16 14:39:00,
2013-01-16 09:44:00,39.9,38.3,30.07,South,180,0.0,0.0,94,0.06,,,0.37,WUHU21523XXSP,2013-01-16 14:44:00,
2013-01-16 09:49:00,40.1,38.5,30.06,South,180,0.0,0.0,94,0.06,,,0.39,WUHU21523XXSP,2013-01-16 14:49:00,
2013-01-16 09:54:00,40.1,38.5,30.07,South,180,0.0,0.0,94,0.04,,,0.39,WUHU21523XXSP,2013-01-16 14:54:00,
2013-01-16 09:59:00,40.1,38.5,30.07,South,180,0.0,0.0,94,0.04,,,0.39,WUHU21523XXSP,2013-01-16 14:59:00,
2013-01-16 10:04:00,40.3,38.7,30.07,South,180,0.0,0.0,94,0.02,,,0.39,WUHU21523XXSP,2013-01-16 15:04:00,
2013-01-16 10:09:00,40.3,38.7,30.07,South,180,0.0,0.0,94,0.02,,,0.39,WUHU21523XXSP,2013-01-16 15:09:00,
2013-01-16 10:14:00,40.5,38.8,30.07,South,180,0.0,0.0,94,0.02,,,0.39,WUHU21523XXSP,2013-01-16 15:14:00,
2013-01-16 10:19:00,40.5,38.8,30.07,South,180,0.0,0.0,94,0.02,,,0.39,WUHU21523XXSP,2013-01-16 15:19:00,
2013-01-16 10:24:00,40.6,39.0,30.07,South,180,0.0,0.0,94,0.02,,,0.39,WUHU21523XXSP,2013-01-16 15:24:00,
2013-01-16 10:29:00,40.6,39.0,30.07,South,180,0.0,0.0,94,0.02,,,0.39,WUHU21523XXSP,2013-01-16 15:29:00,
2013-01-16 10:34:00,40.8,39.2,30.07,South,180,0.0,0.0,94,0.02,,,0.39,WUHU21523XXSP,2013-01-16 15:34:00,
2013-01-16 10:39:00,40.8,39.2,30.07,South,180,0.0,0.0,94,0.02,,,0.39,WUHU21523XXSP,2013-01-16 15:39:00,
2013-01-16 10:44:00,40.8,39.2,30.06,South,180,0.0,0.0,94,0.00,,,0.39,WUHU21523XXSP,2013-01-16 15:44:00,
2013-01-16 10:49:00,41.0,39.4,30.06,South,180,0.0,0.0,94,0.00,,,0.39,WUHU21523XXSP,2013-01-16 15:49:00,
2013-01-16 10:54:00,41.0,39.4,30.05,South,180,0.0,0.0,94,0.00,,,0.39,WUHU21523XXSP,2013-01-16 15:54:00,
2013-01-16 10:59:00,41.0,39.4,30.05,SSW,202,0.0,0.0,94,0.00,,,0.39,WUHU21523XXSP,2013-01-16 15:59:00,
2013-01-16 11:04:00,41.0,39.4,30.05,SSW,202,0.0,0.0,94,0.00,,,0.39,WUHU21523XXSP,2013-01-16 16:04:00,
2013-01-16 11:09:00,41.2,39.6,30.04,SSW,202,0.0,0.0,94,0.00,,,0.39,WUHU21523XXSP,2013-01-16 16:09:00,
2013-01-16 11:14:00,41.2,39.6,30.04,SSW,202,0.0,0.0,94,0.00,,,0.39,WUHU21523XXSP,2013-01-16 16:14:00,
2013-01-16 11:19:00,41.2,39.6,30.03,SSW,202,0.0,0.0,94,0.00,,,0.39,WUHU21523XXSP,2013-01-16 16:19:00,
2013-01-16 11:24:00,41.4,39.7,30.01,SSW,202,0.0,0.0,94,0.00,,,0.39,WUHU21523XXSP,2013-01-16 16:24:00,
2013-01-16 11:29:00,41.4,39.7,30.00,ENE,67,0.0,0.0,94,0.00,,,0.39,WUHU21523XXSP,2013-01-16 16:29:00,
2013-01-16 11:34:00,41.5,39.9,30.00,ENE,67,0.0,0.0,94,0.00,,,0.39,WUHU21523XXSP,2013-01-16 16:34:00,
2013-01-16 11:39:00,41.5,39.9,30.00,ENE,67,0.0,0.0,94,0.00,,,0.39,WUHU21523XXSP,2013-01-16 16:39:00,
2013-01-16 11:44:00,41.7,40.1,29.99,SSW,202,0.7,0.7,94,0.00,,,0.39,WUHU21523XXSP,2013-01-16 16:44:00,
2013-01-16 11:49:00,41.7,40.1,29.99,SSW,202,0.0,0.7,94,0.00,,,0.39,WUHU21523XXSP,2013-01-16 16:49:00,
2013-01-16 11:54:00,41.9,40.3,29.99,SSW,202,0.0,0.0,94,0.00,,,0.39,WUHU21523XXSP,2013-01-16 16:54:00,
2013-01-16 11:59:00,42.1,40.5,29.98,SSW,202,0.0,0.0,94,0.00,,,0.39,WUHU21523XXSP,2013-01-16 16:59:00,
2013-01-16 12:04:00,42.1,40.5,29.99,SSW,202,0.0,0.0,94,0.00,,,0.39,WUHU21523XXSP,2013-01-16 17:04:00,
2013-01-16 12:09:00,42.1,40.5,29.97,SSW,202,0.0,1.1,94,0.00,,,0.39,WUHU21523XXSP,2013-01-16 17:09:00,
2013-01-16 12:14:00,42.1,40.5,29.97,SSW,202,0.0,1.1,94,0.00,,,0.39,WUHU21523XXSP,2013-01-16 17:14:00,
2013-01-16 12:19:00,42.1,40.5,29.98,SSW,202,0.0,0.0,94,0.00,,,0.39,WUHU21523XXSP,2013-01-16 17:19:00,
2013-01-16 12:24:00,42.1,40.5,29.97,SSW,202,0.0,0.0,94,0.00,,,0.39,WUHU21523XXSP,2013-01-16 17:24:00,
2013-01-16 12:29:00,42.1,40.5,29.97,SSW,202,0.0,0.0,94,0.00,,,0.39,WUHU21523XXSP,2013-01-16 17:29:00,
2013-01-16 12:34:00,42.4,40.8,29.97,SSW,202,0.0,0.0,94,0.00,,,0.39,WUHU21523XXSP,2013-01-16 17:34:00,
2013-01-16 12:39:00,42.4,40.8,29.96,SSW,202,0.0,0.0,94,0.00,,,0.39,WUHU21523XXSP,2013-01-16 17:39:00,
2013-01-16 12:44:00,42.4,40.8,29.96,SSW,202,0.0,0.0,94,0.00,,,0.39,WUHU21523XXSP,2013-01-16 17:44:00,
2013-01-16 12:49:00,42.4,40.8,29.96,SSW,202,0.0,0.0,94,0.00,,,0.39,WUHU21523XXSP,2013-01-16 17:49:00,
2013-01-16 12:54:00,42.6,41.0,29.97,SSW,202,0.0,0.0,94,0.00,,,0.39,WUHU21523XXSP,2013-01-16 17:54:00,
2013-01-16 12:59:00,42.6,41.0,29.96,SSW,202,0.0,0.0,94,0.00,,,0.39,WUHU21523XXSP,2013-01-16 17:59:00,
2013-01-16 13:04:00,42.6,41.0,29.96,SSW,202,0.0,0.0,94,0.00,,,0.39,WUHU21523XXSP,2013-01-16 18:04:00,
2013-01-16 13:09:00,42.6,41.0,29.95,SSW,202,0.0,0.0,94,0.00,,,0.39,WUHU21523XXSP,2013-01-16 18:09:00,
2013-01-16 13:14:00,43.0,41.4,29.95,SSW,202,0.0,0.0,94,0.00,,,0.39,WUHU21523XXSP,2013-01-16 18:14:00,
2013-01-16 13:19:00,42.8,41.2,29.95,SSW,202,0.0,0.0,94,0.00,,,0.39,WUHU21523XXSP,2013-01-16 18:19:00,
2013-01-16 13:24:00,43.0,41.4,29.94,SE,135,0.0,0.0,94,0.00,,,0.39,WUHU21523XXSP,2013-01-16 18:24:00,
2013-01-16 13:29:00,43.3,41.7,29.94,SSE,157,0.0,0.0,94,0.00,,,0.39,WUHU21523XXSP,2013-01-16 18:29:00,
2013-01-16 13:34:00,43.5,41.9,29.94,SSE,157,0.0,0.0,94,0.00,,,0.39,WUHU21523XXSP,2013-01-16 18:34:00,
2013-01-16 13:39:00,43.7,42.1,29.94,SSE,157,0.0,0.0,94,0.00,,,0.39,WUHU21523XXSP,2013-01-16 18:39:00,
2013-01-16 13:44:00,43.9,42.3,29.94,South,180,1.1,1.1,94,0.00,,,0.39,WUHU21523XXSP,2013-01-16 18:44:00,
2013-01-16 13:49:00,44.1,42.4,29.93,South,180,0.0,1.1,94,0.00,,,0.39,WUHU21523XXSP,2013-01-16 18:49:00,
2013-01-16 13:54:00,44.2,42.6,29.93,South,180,0.0,0.0,94,0.00,,,0.39,WUHU21523XXSP,2013-01-16 18:54:00,
2013-01-16 13:59:00,44.2,42.6,29.94,South,180,0.0,0.0,94,0.00,,,0.39,WUHU21523XXSP,2013-01-16 18:59:00,
2013-01-16 14:04:00,44.2,42.6,29.94,South,180,0.0,0.0,94,0.00,,,0.39,WUHU21523XXSP,2013-01-16 19:04:00,
2013-01-16 14:09:00,44.4,42.8,29.94,South,180,0.0,0.0,94,0.00,,,0.39,WUHU21523XXSP,2013-01-16 19:09:00,
2013-01-16 14:14:00,44.4,42.8,29.94,South,180,0.0,0.0,94,0.00,,,0.39,WUHU21523XXSP,2013-01-16 19:14:00,
2013-01-16 14:19:00,44.4,42.8,29.95,South,180,0.0,0.0,94,0.00,,,0.39,WUHU21523XXSP,2013-01-16 19:19:00,
2013-01-16 14:24:00,44.6,43.0,29.96,South,180,0.0,0.0,94,0.00,,,0.39,WUHU21523XXSP,2013-01-16 19:24:00,
2013-01-16 14:29:00,44.8,43.2,29.96,South,180,0.0,0.0,94,0.00,,,0.39,WUHU21523XXSP,2013-01-16 19:29:00,
2013-01-16 14:34:00,44.8,43.2,29.96,South,180,0.0,0.0,94,0.00,,,0.39,WUHU21523XXSP,2013-01-16 19:34:00,
2013-01-16 14:39:00,44.8,43.2,29.96,South,180,0.0,0.0,94,0.00,,,0.39,WUHU21523XXSP,2013-01-16 19:39:00,
2013-01-16 14:44:00,45.1,43.5,29.96,South,180,0.0,0.0,94,0.00,,,0.39,WUHU21523XXSP,2013-01-16 19:44:00,
2013-01-16 14:49:00,45.3,43.7,29.96,South,180,1.1,1.1,94,0.00,,,0.39,WUHU21523XXSP,2013-01-16 19:49:00,
2013-01-16 14:54:00,45.7,44.1,29.96,South,180,0.0,1.1,94,0.00,,,0.39,WUHU21523XXSP,2013-01-16 19:54:00,
2013-01-16 14:59:00,45.7,44.1,29.96,South,180,0.0,0.0,94,0.00,,,0.39,WUHU21523XXSP,2013-01-16 19:59:00,
2013-01-16 15:04:00,45.7,44.1,29.96,South,180,0.0,0.0,94,0.00,,,0.39,WUHU21523XXSP,2013-01-16 20:04:00,
2013-01-16 15:09:00,46.0,44.4,29.95,South,180,0.0,0.0,94,0.00,,,0.39,WUHU21523XXSP,2013-01-16 20:09:00,
2013-01-16 15:14:00,46.2,44.3,29.95,South,180,0.0,0.0,93,0.00,,,0.39,WUHU21523XXSP,2013-01-16 20:14:00,
2013-01-16 15:19:00,46.2,44.3,29.95,South,180,0.0,0.0,93,0.00,,,0.39,WUHU21523XXSP,2013-01-16 20:19:00,
2013-01-16 15:24:00,46.6,44.7,29.96,South,180,0.0,0.0,93,0.00,,,0.39,WUHU21523XXSP,2013-01-16 20:24:00,
2013-01-16 15:29:00,46.6,44.7,29.96,South,180,0.0,0.0,93,0.00,,,0.39,WUHU21523XXSP,2013-01-16 20:29:00,
2013-01-16 15:34:00,46.6,44.7,29.96,SSE,157,0.0,0.0,93,0.00,,,0.39,WUHU21523XXSP,2013-01-16 20:34:00,
2013-01-16 15:39:00,46.9,45.0,29.95,SSE,157,0.0,0.0,93,0.00,,,0.39,WUHU21523XXSP,2013-01-16 20:39:00,
2013-01-16 15:44:00,46.9,45.0,29.95,NE,45,0.0,0.0,93,0.00,,,0.39,WUHU21523XXSP,2013-01-16 20:44:00,
2013-01-16 15:49:00,46.9,45.0,29.95,NE,45,0.0,0.0,93,0.00,,,0.39,WUHU21523XXSP,2013-01-16 20:49:00,
2013-01-16 15:54:00,47.1,45.2,29.95,NE,45,0.0,0.0,93,0.00,,,0.39,WUHU21523XXSP,2013-01-16 20:54:00,
2013-01-16 15:59:00,47.1,45.2,29.96,NE,45,0.0,0.0,93,0.00,,,0.39,WUHU21523XXSP,2013-01-16 20:59:00,
2013-01-16 16:04:00,46.9,45.0,29.94,South,180,0.0,0.0,93,0.00,,,0.39,WUHU21523XXSP,2013-01-16 21:04:00,
2013-01-16 16:09:00,47.1,45.2,29.94,South,180,0.0,0.0,93,0.00,,,0.39,WUHU21523XXSP,2013-01-16 21:09:00,
2013-01-16 16:14:00,47.1,45.2,29.94,South,180,0.0,0.0,93,0.00,,,0.39,WUHU21523XXSP,2013-01-16 21:14:00,
2013-01-16 16:19:00,47.1,45.2,29.94,South,180,0.0,0.0,93,0.00,,,0.39,WUHU21523XXSP,2013-01-16 21:19:00,
2013-01-16 16:24:00,47.1,45.2,29.94,South,180,0.0,0.0,93,0.00,,,0.39,WUHU21523XXSP,2013-01-16 21:24:00,
2013-01-16 16:29:00,47.1,45.2,29.94,South,180,0.0,0.0,93,0.00,,,0.39,WUHU21523XXSP,2013-01-16 21:29:00,
2013-01-16 16:34:00,47.1,45.2,29.94,South,180,0.0,0.0,93,0.00,,,0.39,WUHU21523XXSP,2013-01-16 21:34:00,
2013-01-16 16:39:00,46.9,45.0,29.94,South,180,0.0,0.0,93,0.00,,,0.39,WUHU21523XXSP,2013-01-16 21:39:00,
2013-01-16 16:44:00,46.9,45.0,29.94,South,180,0.0,0.0,93,0.00,,,0.39,WUHU21523XXSP,2013-01-16 21:44:00,
2013-01-16 16:49:00,46.9,45.0,29.94,South,180,0.0,0.0,93,0.00,,,0.39,WUHU21523XXSP,2013-01-16 21:49:00,
2013-01-16 16:54:00,46.9,45.0,29.94,NE,45,0.9,0.9,93,0.00,,,0.39,WUHU21523XXSP,2013-01-16 21:54:00,
2013-01-16 16:59:00,46.8,44.9,29.95,NE,45,0.0,0.9,93,0.00,,,0.39,WUHU21523XXSP,2013-01-16 21:59:00,
2013-01-16 17:04:00,46.8,44.9,29.95,NE,45,0.0,0.9,93,0.00,,,0.39,WUHU21523XXSP,2013-01-16 22:04:00,
2013-01-16 17:09:00,46.8,44.9,29.96,NE,45,0.0,0.0,93,0.00,,,0.39,WUHU21523XXSP,2013-01-16 22:09:00,
2013-01-16 17:14:00,46.6,44.7,29.95,NE,45,0.0,0.0,93,0.00,,,0.39,WUHU21523XXSP,2013-01-16 22:14:00,
2013-01-16 17:19:00,46.6,44.7,29.96,NE,45,0.0,0.0,93,0.00,,,0.39,WUHU21523XXSP,2013-01-16 22:19:00,
2013-01-16 17:24:00,46.4,44.5,29.96,NE,45,0.0,0.0,93,0.00,,,0.39,WUHU21523XXSP,2013-01-16 22:24:00,
2013-01-16 17:29:00,46.2,44.3,29.96,NE,45,0.0,0.0,93,0.00,,,0.39,WUHU21523XXSP,2013-01-16 22:29:00,
2013-01-16 17:34:00,46.2,44.3,29.96,NE,45,0.0,0.0,93,0.00,,,0.39,WUHU21523XXSP,2013-01-16 22:34:00,
2013-01-16 17:39:00,46.2,44.3,29.96,NE,45,0.0,0.0,93,0.00,,,0.39,WUHU21523XXSP,2013-01-16 22:39:00,
2013-01-16 17:44:00,46.2,44.3,29.97,NE,45,0.0,0.0,93,0.00,,,0.39,WUHU21523XXSP,2013-01-16 22:44:00,
2013-01-16 17:49:00,46.2,44.3,29.97,NE,45,0.0,0.0,93,0.00,,,0.39,WUHU21523XXSP,2013-01-16 22:49:00,
2013-01-16 17:54:00,46.2,44.3,29.97,NE,45,0.0,0.0,93,0.00,,,0.39,WUHU21523XXSP,2013-01-16 22:54:00,
2013-01-16 17:59:00,46.2,44.3,29.97,NE,45,0.0,0.0,93,0.00,,,0.39,WUHU21523XXSP,2013-01-16 22:59:00,
2013-01-16 18:04:00,46.0,44.1,29.97,NE,45,0.0,0.0,93,0.00,,,0.39,WUHU21523XXSP,2013-01-16 23:04:00,
2013-01-16 18:09:00,46.0,44.1,29.98,NE,45,0.0,0.0,93,0.00,,,0.39,WUHU21523XXSP,2013-01-16 23:09:00,
2013-01-16 18:14:00,46.0,44.1,29.98,NE,45,0.0,0.0,93,0.00,,,0.39,WUHU21523XXSP,2013-01-16 23:14:00,
2013-01-16 18:19:00,46.0,44.1,29.98,NE,45,0.0,0.0,93,0.00,,,0.39,WUHU21523XXSP,2013-01-16 23:19:00,
2013-01-16 18:24:00,46.0,44.1,29.97,SSE,157,0.0,0.0,93,0.00,,,0.39,WUHU21523XXSP,2013-01-16 23:24:00,
2013-01-16 18:29:00,46.0,44.1,29.98,South,180,0.0,0.0,93,0.00,,,0.39,WUHU21523XXSP,2013-01-16 23:29:00,
2013-01-16 18:34:00,46.0,44.1,29.98,South,180,0.0,0.0,93,0.00,,,0.39,WUHU21523XXSP,2013-01-16 23:34:00,
2013-01-16 18:39:00,46.0,44.1,29.99,South,180,0.0,0.0,93,0.00,,,0.39,WUHU21523XXSP,2013-01-16 23:39:00,
2013-01-16 18:44:00,46.0,44.1,29.99,South,180,0.0,0.0,93,0.00,,,0.39,WUHU21523XXSP,2013-01-16 23:44:00,
2013-01-16 18:49:00,46.0,44.1,29.99,South,180,0.0,0.0,93,0.00,,,0.39,WUHU21523XXSP,2013-01-16 23:49:00,
2013-01-16 18:54:00,46.0,44.1,29.99,South,180,0.0,0.0,93,0.00,,,0.39,WUHU21523XXSP,2013-01-16 23:54:00,
2013-01-16 18:59:00,46.0,44.1,30.00,South,180,0.0,0.0,93,0.00,,,0.39,WUHU21523XXSP,2013-01-16 23:59:00,
2013-01-16 19:04:00,46.0,44.1,30.00,South,180,0.0,0.0,93,0.00,,,0.39,WUHU21523XXSP,2013-01-17 00:04:00,
2013-01-16 19:09:00,46.0,44.1,30.00,South,180,0.0,0.0,93,0.00,,,0.39,WUHU21523XXSP,2013-01-17 00:09:00,
2013-01-16 19:14:00,46.0,44.1,29.99,NE,45,0.0,0.0,93,0.00,,,0.39,WUHU21523XXSP,2013-01-17 00:14:00,
2013-01-16 19:19:00,46.0,44.1,30.00,NE,45,0.0,0.0,93,0.00,,,0.39,WUHU21523XXSP,2013-01-17 00:19:00,
2013-01-16 19:24:00,46.0,44.1,30.00,WNW,292,0.0,0.0,93,0.00,,,0.39,WUHU21523XXSP,2013-01-17 00:24:00,
2013-01-16 19:29:00,46.0,44.1,30.00,WNW,292,0.0,0.0,93,0.00,,,0.39,WUHU21523XXSP,2013-01-17 00:29:00,
2013-01-16 19:34:00,46.0,44.1,30.00,WNW,292,0.0,0.0,93,0.00,,,0.39,WUHU21523XXSP,2013-01-17 00:34:00,
2013-01-16 19:39:00,46.0,44.1,30.00,WNW,292,0.0,0.0,93,0.00,,,0.39,WUHU21523XXSP,2013-01-17 00:39:00,
2013-01-16 19:44:00,46.0,44.1,30.00,WNW,292,0.0,0.0,93,0.00,,,0.39,WUHU21523XXSP,2013-01-17 00:44:00,
2013-01-16 19:49:00,46.0,44.1,30.00,WNW,292,0.0,0.0,93,0.00,,,0.39,WUHU21523XXSP,2013-01-17 00:49:00,
2013-01-16 19:54:00,46.0,44.1,30.01,SSE,157,4.7,4.7,93,0.02,,,0.41,WUHU21523XXSP,2013-01-17 00:54:00,
2013-01-16 19:59:00,46.0,44.1,30.01,SSW,202,0.0,4.7,93,0.02,,,0.41,WUHU21523XXSP,2013-01-17 00:59:00,
2013-01-16 20:04:00,46.0,44.1,30.01,South,180,0.0,4.7,93,0.02,,,0.41,WUHU21523XXSP,2013-01-17 01:04:00,
2013-01-16 20:09:00,46.0,44.1,30.00,South,180,0.0,0.0,93,0.02,,,0.41,WUHU21523XXSP,2013-01-17 01:09:00,
2013-01-16 20:14:00,46.0,44.1,30.00,South,180,0.0,0.0,93,0.02,,,0.41,WUHU21523XXSP,2013-01-17 01:14:00,
2013-01-16 20:19:00,46.0,44.1,30.00,South,180,0.0,0.0,93,0.02,,,0.41,WUHU21523XXSP,2013-01-17 01:19:00,
2013-01-16 20:24:00,46.0,44.1,30.01,South,180,0.0,0.0,93,0.02,,,0.41,WUHU21523XXSP,2013-01-17 01:24:00,
2013-01-16 20:29:00,46.0,44.1,30.01,South,180,0.0,0.0,93,0.02,,,0.41,WUHU21523XXSP,2013-01-17 01:29:00,
2013-01-16 20:34:00,46.0,44.1,30.00,South,180,0.0,0.0,93,0.02,,,0.41,WUHU21523XXSP,2013-01-17 01:34:00,
2013-01-16 20:39:00,46.0,44.1,30.00,NNE,22,1.3,1.3,93,0.02,,,0.41,WUHU21523XXSP,2013-01-17 01:39:00,
2013-01-16 20:44:00,46.0,44.1,30.01,NNE,22,0.0,1.3,93,0.02,,,0.41,WUHU21523XXSP,2013-01-17 01:44:00,
2013-01-16 20:49:00,46.0,44.4,30.01,NNE,22,0.0,1.3,94,0.02,,,0.41,WUHU21523XXSP,2013-01-17 01:49:00,
2013-01-16 20:54:00,46.0,44.4,29.99,NNE,22,0.0,0.0,94,0.00,,,0.41,WUHU21523XXSP,2013-01-17 01:54:00,
2013-01-16 20:59:00,46.0,44.4,29.99,NNE,22,0.0,0.0,94,0.00,,,0.41,WUHU21523XXSP,2013-01-17 01:59:00,
2013-01-16 21:04:00,46.0,44.4,29.99,NNE,22,0.0,0.0,94,0.00,,,0.41,WUHU21523XXSP,2013-01-17 02:04:00,
2013-01-16 21:09:00,46.0,44.4,29.99,NNE,22,0.0,0.0,94,0.00,,,0.41,WUHU21523XXSP,2013-01-17 02:09:00,
2013-01-16 21:14:00,46.0,44.4,30.00,NNE,22,0.0,0.0,94,0.00,,,0.41,WUHU21523XXSP,2013-01-17 02:14:00,
2013-01-16 21:19:00,46.0,44.4,30.00,NNE,22,0.0,0.0,94,0.00,,,0.41,WUHU21523XXSP,2013-01-17 02:19:00,
2013-01-16 21:24:00,46.0,44.4,29.99,NNE,22,0.0,0.0,94,0.00,,,0.41,WUHU21523XXSP,2013-01-17 02:24:00,
2013-01-16 21:29:00,46.0,44.4,29.99,NNE,22,0.0,0.0,94,0.00,,,0.41,WUHU21523XXSP,2013-01-17 02:29:00,
2013-01-16 21:34:00,46.2,44.6,29.99,NNE,22,0.0,0.0,94,0.00,,,0.41,WUHU21523XXSP,2013-01-17 02:34:00,
2013-01-16 21:39:00,46.2,44.6,29.99,NNE,22,0.0,0.0,94,0.00,,,0.41,WUHU21523XXSP,2013-01-17 02:39:00,
2013-01-16 21:44:00,46.2,44.6,30.00,NNE,22,0.0,0.0,94,0.00,,,0.41,WUHU21523XXSP,2013-01-17 02:44:00,
2013-01-16 21:49:00,46.2,44.6,30.00,NNE,22,0.0,0.0,94,0.00,,,0.41,WUHU21523XXSP,2013-01-17 02:49:00,
2013-01-16 21:54:00,46.2,44.6,30.00,NNE,22,0.0,0.0,94,0.00,,,0.41,WUHU21523XXSP,2013-01-17 02:54:00,
2013-01-16 21:59:00,46.2,44.6,30.00,NNE,22,0.0,0.0,94,0.00,,,0.41,WUHU21523XXSP,2013-01-17 02:59:00,
2013-01-16 22:04:00,46.2,44.6,29.99,NNE,22,0.0,0.0,94,0.00,,,0.41,WUHU21523XXSP,2013-01-17 03:04:00,
2013-01-16 22:09:00,46.4,44.8,30.00,NNE,22,0.0,0.0,94,0.00,,,0.41,WUHU21523XXSP,2013-01-17 03:09:00,
2013-01-16 22:14:00,46.6,45.0,30.00,NNE,22,0.0,0.0,94,0.00,,,0.41,WUHU21523XXSP,2013-01-17 03:14:00,
2013-01-16 22:19:00,46.6,45.0,29.99,NNE,22,0.0,0.0,94,0.00,,,0.41,WUHU21523XXSP,2013-01-17 03:19:00,
2013-01-16 22:24:00,46.6,45.0,29.99,NNE,22,0.0,0.0,94,0.00,,,0.41,WUHU21523XXSP,2013-01-17 03:24:00,
2013-01-16 22:29:00,46.6,45.0,29.99,NNE,22,0.0,0.0,94,0.00,,,0.41,WUHU21523XXSP,2013-01-17 03:29:00,
2013-01-16 22:34:00,46.6,45.0,29.99,NNE,22,0.0,0.0,94,0.00,,,0.41,WUHU21523XXSP,2013-01-17 03:34:00,
2013-01-16 22:39:00,46.8,45.1,29.99,NNE,22,0.0,0.0,94,0.00,,,0.41,WUHU21523XXSP,2013-01-17 03:39:00,
2013-01-16 22:44:00,46.8,45.1,29.98,NNE,22,0.0,0.0,94,0.00,,,0.41,WUHU21523XXSP,2013-01-17 03:44:00,
2013-01-16 22:49:00,46.8,45.1,29.98,NNE,22,0.0,0.0,94,0.00,,,0.41,WUHU21523XXSP,2013-01-17 03:49:00,
2013-01-16 22:54:00,46.8,45.1,29.99,NNE,22,0.0,0.0,94,0.00,,,0.41,WUHU21523XXSP,2013-01-17 03:54:00,
2013-01-16 22:59:00,46.8,45.1,29.98,NNE,22,0.0,0.0,94,0.00,,,0.41,WUHU21523XXSP,2013-01-17 03:59:00,
2013-01-16 23:04:00,46.8,45.1,29.99,NNW,337,6.5,12.3,94,0.00,,,0.41,WUHU21523XXSP,2013-01-17 04:04:00,
2013-01-16 23:09:00,46.9,45.3,30.00,NW,315,2.0,12.3,94,0.00,,,0.41,WUHU21523XXSP,2013-01-17 04:09:00,
2013-01-16 23:14:00,47.1,45.2,30.00,NW,326,2.7,2.9,93,0.00,,,0.41,WUHU21523XXSP,2013-01-17 04:14:00,
2013-01-16 23:19:00,47.1,45.2,30.00,NW,315,6.5,6.5,93,0.00,,,0.41,WUHU21523XXSP,2013-01-17 04:19:00,
2013-01-16 23:24:00,47.3,45.4,30.00,NNW,337,0.0,6.5,93,0.00,,,0.41,WUHU21523XXSP,2013-01-17 04:24:00,
2013-01-16 23:29:00,47.5,45.6,30.00,NNW,337,2.7,2.7,93,0.00,,,0.41,WUHU21523XXSP,2013-01-17 04:29:00,
2013-01-16 23:34:00,47.3,45.1,29.99,WNW,292,0.0,2.7,92,0.00,,,0.41,WUHU21523XXSP,2013-01-17 04:34:00,
2013-01-16 23:39:00,47.3,45.1,30.01,NNW,337,0.0,0.0,92,0.00,,,0.41,WUHU21523XXSP,2013-01-17 04:39:00,
2013-01-16 23:44:00,47.3,45.1,30.01,NNW,337,0.0,0.0,92,0.00,,,0.41,WUHU21523XXSP,2013-01-17 04:44:00,
2013-01-16 23:49:00,47.3,45.1,30.00,NNW,337,0.0,0.0,92,0.00,,,0.41,WUHU21523XXSP,2013-01-17 04:49:00,
2013-01-16 23:54:00,47.1,45.0,30.00,WNW,292,0.0,0.0,92,0.00,,,0.41,WUHU21523XXSP,2013-01-17 04:54:00,
2013-01-16 23:59:00,47.1,45.0,30.00,WNW,292,0.0,0.0,92,0.00,,,0.41,WUHU21523XXSP,2013-01-17 04:59:00,